EA1IDU Weather Reports


Display with metric or nautical units.
time (UTC)temp
F
wind
direction
speed
MPH
gust
MPH
rain 1hr
in
rain 24hr
in
rain mn
in
humidity
%
barometer
mb
20260903151529 0 277 8.0 16.0 0.00 0.00 0.00 1 1026.0
20260903150524 0 240 4.0 8.0 0.00 0.00 0.00 1 1025.8
20260903145520 0 268 4.0 9.0 0.00 0.00 0.00 1 1026.1
20260903144614 0 263 7.0 11.0 0.00 0.00 0.00 1 1026.1
20260903143629 0 253 6.0 11.0 0.00 0.00 0.00 1 1026.2
20260903142604 0 349 0.0 4.0 0.00 0.00 0.00 1 1026.2
20260903141558 0 255 8.0 11.0 0.00 0.00 0.00 1 1026.2
20260903140553 0 230 2.0 4.0 0.00 0.00 0.00 1 1026.4
20260903135548 0 270 5.0 9.0 0.00 0.00 0.00 1 1026.4
20260903134543 0 263 5.0 8.0 0.00 0.00 0.00 1 1026.4
20260903133537 0 246 4.0 9.0 0.00 0.00 0.00 1 1026.5
20260903132533 0 248 5.0 11.0 0.00 0.00 0.00 1 1026.6
20260903131527 0 210 6.0 11.0 0.00 0.00 0.00 1 1026.6
20260903130522 0 246 6.0 11.0 0.00 0.00 0.00 1 1026.5
20260903125518 0 255 6.0 9.0 0.00 0.00 0.00 1 1026.7
20260903124611 0 275 3.0 7.0 0.00 0.00 0.00 1 1026.7
20260903123628 0 262 4.0 11.0 0.00 0.00 0.00 1 1026.9
20260903122601 0 261 3.0 8.0 0.00 0.00 0.00 1 1026.8
20260903121556 0 268 2.0 6.0 0.00 0.00 0.00 1 1026.8
20260903120551 0 262 4.0 8.0 0.00 0.00 0.00 1 1026.9
20260903115546 0 254 3.0 8.0 0.00 0.00 0.00 1 1027.0
20260903114541 0 255 4.0 8.0 0.00 0.00 0.00 1 1026.9
20260903113537 0 257 3.0 7.0 0.00 0.00 0.00 1 1027.1
20260903112550 0 283 2.0 7.0 0.00 0.00 0.00 1 1027.2
20260903111525 0 236 2.0 4.0 0.00 0.00 0.00 1 1027.4
20260903110520 0 270 1.0 2.0 0.00 0.00 0.00 1 1027.4
20260903105635 0 264 2.0 4.0 0.00 0.00 0.00 1 1027.6
20260903104610 0 255 2.0 4.0 0.00 0.00 0.00 1 1027.7
20260903103605 0 248 2.0 4.0 0.00 0.00 0.00 1 1027.6
20260903102619 0 248 1.0 2.0 0.00 0.00 0.00 1 1027.7
20260903101554 0 0.0 2.0 0.00 0.00 0.00 1 1027.6
20260903100549 0 273 1.0 2.0 0.00 0.00 0.00 1 1027.7
20260903095543 0 270 0.0 2.0 0.00 0.00 0.00 1 1027.8
20260903094538 0 258 1.0 2.0 0.00 0.00 0.00 1 1027.7
20260903093533 0 0.0 2.0 0.00 0.00 0.00 1 1027.6
20260903092528 0 270 1.0 2.0 0.00 0.00 0.00 1 1027.8
20260903091523 0 270 2.0 4.0 0.00 0.00 0.00 1 1027.8
20260903090517 0 270 0.0 2.0 0.00 0.00 0.00 1 1027.8
20260903085612 0 270 2.0 6.0 0.00 0.00 0.00 1 1027.8
20260903084607 0 270 1.0 4.0 0.00 0.00 0.00 1 1027.8
20260903083602 0 270 1.0 2.0 0.00 0.00 0.00 1 1027.6
20260903082557 0 270 0.0 4.0 0.00 0.00 0.00 1 1027.8
20260903081553 0 270 0.0 2.0 0.00 0.00 0.00 1 1027.8
20260903080547 0 270 1.0 4.0 0.00 0.00 0.00 1 1027.8
20260903075541 0 270 1.0 2.0 0.00 0.00 0.00 1 1027.9
20260903074536 0 270 1.0 4.0 0.00 0.00 0.00 1 1027.8
20260903073530 0 270 2.0 4.0 0.00 0.00 0.00 1 1027.9
20260903072525 0 270 3.0 4.0 0.00 0.00 0.00 1 1027.8
20260903071520 0 270 1.0 4.0 0.00 0.00 0.00 1 1027.6
20260903070636 0 270 0.0 2.0 0.00 0.00 0.00 1 1027.7
20260903065610 0 270 1.0 2.0 0.00 0.00 0.00 1 1027.8
20260903064625 0 270 0.0 2.0 0.00 0.00 0.00 1 1027.6
20260903063559 0 270 0.0 2.0 0.00 0.00 0.00 1 1027.6
20260903062614 0 270 1.0 4.0 0.00 0.00 0.00 1 1027.5
20260903061549 0 270 1.0 2.0 0.00 0.00 0.00 1 1027.4
20260903060544 0 270 5.0 7.0 0.00 0.00 0.00 1 1027.3
20260903055538 0 270 3.0 6.0 0.00 0.00 0.00 1 1027.2
20260903054533 0 270 2.0 4.0 0.00 0.00 0.00 1 1027.2
20260903053528 0 270 3.0 4.0 0.00 0.00 0.00 1 1027.2
20260903052523 0 270 2.0 4.0 0.00 0.00 0.00 1 1027.2
20260903051518 0 270 3.0 4.0 0.00 0.00 0.00 1 1027.0
20260903050613 0 270 3.0 7.0 0.00 0.00 0.00 1 1027.1
20260903045608 0 270 3.0 4.0 0.00 0.00 0.00 1 1026.9
20260903044603 0 270 1.0 4.0 0.00 0.00 0.00 1 1026.9
20260903043559 0 270 1.0 4.0 0.00 0.00 0.00 1 1027.1
20260903042553 0 270 1.0 4.0 0.00 0.00 0.00 1 1026.9
20260903041548 0 270 1.0 4.0 0.00 0.00 0.00 1 1026.8
20260903040543 0 270 0.0 2.0 0.00 0.00 0.00 1 1027.0
20260903035536 0 270 2.0 4.0 0.00 0.00 0.00 1 1026.9
20260903034531 0 270 5.0 7.0 0.00 0.00 0.00 1 1027.1
20260903033526 0 270 2.0 4.0 0.00 0.00 0.00 1 1027.2
20260903032521 0 270 2.0 4.0 0.00 0.00 0.00 1 1027.1
20260903031616 0 270 1.0 2.0 0.00 0.00 0.00 1 1027.0
20260903030610 0 270 2.0 4.0 0.00 0.00 0.00 1 1027.0
20260903025625 0 270 3.0 4.0 0.00 0.00 0.00 1 1027.2
20260903024600 0 270 4.0 6.0 0.00 0.00 0.00 1 1027.2
20260903023555 0 270 4.0 8.0 0.00 0.00 0.00 1 1027.0
20260903022550 0 270 3.0 7.0 0.00 0.00 0.00 1 1027.1
20260903021545 0 270 3.0 6.0 0.00 0.00 0.00 1 1027.1
20260903020540 0 270 4.0 7.0 0.00 0.00 0.00 1 1027.1
20260903015555 0 270 3.0 9.0 0.00 0.00 0.00 1 1027.2
20260903014529 0 270 4.0 9.0 0.00 0.00 0.00 1 1027.1
20260903013523 0 270 4.0 7.0 0.00 0.00 0.00 1 1027.2
20260903012519 0 270 5.0 9.0 0.00 0.00 0.00 1 1027.3
20260903011614 0 270 6.0 11.0 0.00 0.00 0.00 1 1027.3
20260903010608 0 270 3.0 6.0 0.00 0.00 0.00 1 1027.3
20260903005601 0 270 4.0 6.0 0.00 0.00 0.00 1 1027.2
20260903004556 0 270 4.0 9.0 0.00 0.00 0.00 1 1027.4
20260903003551 0 270 4.0 8.0 0.00 0.00 0.00 1 1027.3
20260903002546 0 270 5.0 8.0 0.00 0.00 0.00 1 1027.4
20260903001542 0 270 3.0 8.0 0.00 0.00 0.00 1 1027.5
20260903000537 0 270 5.0 7.0 0.00 0.00 0.00 1 1027.4
20260902235552 0 270 5.0 8.0 0.00 0.00 0.00 1 1027.4
20260902234525 0 270 5.0 8.0 0.00 0.00 0.00 1 1027.5
20260902233520 0 270 5.0 9.0 0.00 0.00 0.00 1 1027.4
20260902232635 0 270 6.0 11.0 0.00 0.00 0.00 1 1027.3
20260902231609 0 270 6.0 11.0 0.00 0.00 0.00 1 1027.4
20260902230624 0 270 6.0 11.0 0.00 0.00 0.00 1 1027.4
20260902225600 0 270 8.0 13.0 0.00 0.00 0.00 1 1027.2
20260902224554 0 270 11.0 15.0 0.00 0.00 0.00 1 1027.2
20260902223549 0 270 9.0 16.0 0.00 0.00 0.00 1 1027.2
20260902222544 0 270 7.0 13.0 0.00 0.00 0.00 1 1027.2
20260902221539 0 270 11.0 16.0 0.00 0.00 0.00 1 1027.2
20260902220554 0 270 9.0 15.0 0.00 0.00 0.00 1 1027.2
20260902215528 0 270 9.0 17.0 0.00 0.00 0.00 1 1027.2
20260902214522 0 270 10.0 15.0 0.00 0.00 0.00 1 1027.3
20260902213517 0 270 6.0 11.0 0.00 0.00 0.00 1 1027.2
20260902212612 0 270 6.0 11.0 0.00 0.00 0.00 1 1027.1
20260902211608 0 270 5.0 8.0 0.00 0.00 0.00 1 1027.0
20260902210602 0 270 5.0 8.0 0.00 0.00 0.00 1 1027.0
20260902205557 0 270 8.0 15.0 0.00 0.00 0.00 1 1026.9
20260902204612 0 270 11.0 17.0 0.00 0.00 0.00 1 1026.9
20260902203546 0 270 12.0 15.0 0.00 0.00 0.00 1 1026.8
20260902202600 0 270 8.0 13.0 0.00 0.00 0.00 1 1026.8
20260902201556 0 270 9.0 14.0 0.00 0.00 0.00 1 1026.6
20260902200531 0 270 9.0 15.0 0.00 0.00 0.00 1 1026.6
20260902195525 0 270 9.0 15.0 0.00 0.00 0.00 1 1026.4
20260902194541 0 270 7.0 11.0 0.00 0.00 0.00 1 1026.3
20260902193615 0 270 7.0 13.0 0.00 0.00 0.00 1 1026.2
20260902192609 0 270 6.0 16.0 0.00 0.00 0.00 1 1026.0
20260902191604 0 270 9.0 16.0 0.00 0.00 0.00 1 1025.8
20260902190559 0 270 8.0 14.0 0.00 0.00 0.00 1 1025.6
20260902185555 0 270 11.0 18.0 0.00 0.00 0.00 1 1025.4
20260902184548 0 293 10.0 16.0 0.00 0.00 0.00 1 1025.2
20260902183603 0 293 1.0 4.0 0.00 0.00 0.00 1 1024.9
20260902182538 0 273 2.0 4.0 0.00 0.00 0.00 1 1024.8
20260902181533 0 267 2.0 4.0 0.00 0.00 0.00 1 1024.8
20260902180527 0 248 2.0 4.0 0.00 0.00 0.00 1 1024.8
20260902175522 0 265 2.0 4.0 0.00 0.00 0.00 1 1024.8
20260902174536 0 254 4.0 6.0 0.00 0.00 0.00 1 1024.8
20260902173611 0 248 3.0 4.0 0.00 0.00 0.00 1 1024.7
20260902172626 0 259 2.0 6.0 0.00 0.00 0.00 1 1024.7
20260902171601 0 221 4.0 7.0 0.00 0.00 0.00 1 1024.6
20260902170556 0 214 1.0 4.0 0.00 0.00 0.00 1 1024.6
20260902165550 0 211 3.0 4.0 0.00 0.00 0.00 1 1024.6
20260902164546 0 247 1.0 4.0 0.00 0.00 0.00 1 1024.6
20260902163542 0 248 1.0 4.0 0.00 0.00 0.00 1 1024.7
20260902162535 0 258 2.0 6.0 0.00 0.00 0.00 1 1024.7
20260902161530 0 268 1.0 4.0 0.00 0.00 0.00 1 1024.7
20260902160525 0 255 2.0 4.0 0.00 0.00 0.00 1 1024.8
20260902155521 0 257 3.0 7.0 0.00 0.00 0.00 1 1024.8
20260902154616 0 221 1.0 4.0 0.00 0.00 0.00 1 1024.9
20260902153610 0 216 1.0 4.0 0.00 0.00 0.00 1 1024.7
20260902152604 0 220 3.0 6.0 0.00 0.00 0.00 1 1024.8